Simultaneous Nadir Overpasses (SNOs) Predictions

Prediction of SNOs between AQUA and NOAA-19 Satellite Orbit:

Table of predicted SNOs for the next 14.0 days since TLE Epoch: 6/4/2022
Index Date (AQUA) Time (AQUA) Lat,Lon (AQUA) SZA (AQUA ) Date (NOAA-19) Time (NOAA-19) Lat,Lon (NOAA-19) SZA (NOAA-19 ) Distance(km) Time Diff (sec)
1 06/05/2022 20:36:56 -77.61, 34.35 124.53 06/05/2022 20:35:55 -77.61, 34.34 124.52 0.45 61
2 06/05/2022 21:26:24 77.67,-158.26 55.54 06/05/2022 21:26:58 77.64,-158.24 55.51 2.75 34
3 06/08/2022 02:10:11 77.35, 132.12 54.94 06/08/2022 02:09:04 77.26, 129.41 55.06 66.96 67
4 06/08/2022 02:59:43 -77.63, -61.43 124.72 06/08/2022 02:59:50 -77.65, -61.36 124.71 2.18 7
5 06/10/2022 08:33:03 77.61, 35.34 55.08 06/10/2022 08:32:51 77.62, 35.32 55.09 1.23 12
6 06/10/2022 09:22:31 -77.71,-157.45 124.80 06/10/2022 09:23:43 -77.76,-156.66 124.83 19.41 72
7 06/12/2022 14:06:22 -77.59, 132.10 125.09 06/12/2022 14:05:43 -77.60, 132.09 125.07 0.89 39
8 06/12/2022 14:55:50 77.66, -60.54 54.99 06/12/2022 14:56:46 77.66, -60.38 54.97 3.65 56
9 06/14/2022 19:39:42 77.59,-131.23 54.80 06/14/2022 19:38:44 77.58,-131.22 54.80 2.00 58
10 06/14/2022 20:29:08 -77.61, 36.37 125.19 06/14/2022 20:29:38 -77.63, 36.34 125.17 3.06 30
11 06/17/2022 02:02:27 77.62, 133.00 54.75 06/17/2022 02:02:38 77.60, 133.02 54.74 1.60 11



Historial Predications of SNOs between AQUA and NOAA-19
